Flag for Germany Weather past 2 weeks in Bayreuth, Bavaria, Germany

Now
89 °F

Sunny.


Feels Like: 88 °F
Forecast: 62 / 79 °F
Wind: 7 mph from Southeast

Location: Grafenwoehr

Current Time: Jul 5, 2015 at 11:50:55 AM

Latest Report: Jul 5, 2015 at 10:58 AM


Visibility: N/A

Pressure: 30.01 "Hg

Humidity: 38%

Dew point: 60 °F

Location of BayreuthLocation

Historic Weather in Bayreuth — Graph

°F

Bayreuth temperature yesterday

Maximum temperature yesterday: 95 °F (at 4:58 PM)
Minimum temperature yesterday: 61 °F (at 4:58 AM)
Average temperature yesterday: 79 °F

Past Weeks' High & Low Weather Summary

 TemperatureHumidityPressure
High95 °F (Jul 4, 4:58 PM)100% (Jun 22, 2:58 AM)30.29 "Hg (Jun 22, 2:58 AM)
Low40 °F (Jun 25, 4:58 AM)26% (Jul 4, 4:58 PM)29.68 "Hg (Jun 23, 1:58 AM)
Average64 °F71%30.09 "Hg
* Reported Jun 20 10:01 AM — Jul 5 10:58 AM, Bayreuth, Weather by CustomWeather, © 2015

Note: Actual official high and low records may vary slightly from our data, if they occured in-between our weather recording intervals... More about our weather records

Advertising

Bayreuth weather history for previous 24 hours

 ConditionsComfort  
Time TempWeatherWind HumidityBarometerVisibility
10:58 AM
Sun, Jul 5
89 °FSunny.7 mph38%30.01 "HgN/A
9:58 AM83 °FSunny.1 mph49%30.02 "HgN/A
8:58 AM78 °FSunny.No wind60%30.04 "HgN/A
7:58 AM72 °FSunny.1 mph73%30.04 "HgN/A
6:58 AM67 °FSunny.No wind88%30.05 "HgN/A
5:58 AM64 °FClear.No wind91%30.06 "HgN/A
4:58 AM66 °FClear.No wind88%30.05 "HgN/A
3:58 AM66 °FClear.No wind88%30.05 "HgN/A
2:58 AM68 °FPassing clouds.No wind83%30.06 "HgN/A
1:58 AM68 °FPassing clouds.No wind83%30.07 "HgN/A
12:58 AM70 °FClear.No wind78%30.06 "HgN/A
11:58 PM
Sat, Jul 4
72 °FClear.No wind73%30.06 "HgN/A
10:58 PM75 °FClear.No wind65%30.07 "HgN/A
9:58 PM78 °FSunny.1 mph55%30.06 "HgN/A
8:58 PM84 °FSunny.No wind47%30.06 "HgN/A
7:58 PM90 °FSunny.3 mph33%30.06 "HgN/A
6:58 PM93 °FSunny.5 mph28%30.06 "HgN/A
5:58 PM93 °FSunny.3 mph28%30.08 "HgN/A
4:58 PM95 °FSunny.6 mph26%30.09 "HgN/A
3:58 PM93 °FSunny.8 mph30%30.10 "HgN/A
2:58 PM91 °FSunny.3 mph36%30.11 "HgN/A
1:58 PM91 °FSunny.8 mph34%30.11 "HgN/A
12:58 PM90 °FSunny.5 mph36%30.14 "HgN/A
11:58 AM88 °FSunny.12 mph40%30.14 "HgN/A
Weather by CustomWeather, © 2015

See weather overviewHow to use our weather pages